Weather in Bezvodnaya

Russia / Republic of Adygea     44°22′33″N   39°54′49″E
temp.,
°C
wind,
m/s
gust,
m/s
humid.,
%
clouds,
%
prec.,
mm/h
press.,
hPa
HPBL,
m
17 april, sat
sat1700:00+9nw119999 0.3 101923
03:00+10wnw1298100 1.6 102068
06:00+9nnw1599100 4.3 1021366
09:00+7nnw1398100 10.1 1023218
12:00+7nne1297100 1.4 1023227
15:00+8e2395100 2.3 1023275
18:00+8ene1497100 0.4 1022230
21:00+7e1297100 1.2 102294
18 april, sun
sun1800:00+7se1197100 0.2 102126
03:00+7n1196100 0.5 101913
06:00+7e1196100 0.1 101822
09:00+9nnw1194100 0.4 1018106
12:00+13nw118497 0.3 1017340
15:00+15n217870 0.7 1017688
18:00+13ne259299 0.9 1017323
21:00+11se2297100 1.4 101631
19 april, mon
mon1900:00+11s1196100 0.0 101612
03:00+10ssw0195100 0.1 101610
06:00+11ese129695 0.3 101533
09:00+13w0196100 1.4 101554
12:00+14se129699 3.0 1014120
15:00+20e1269100 3.2 1012633
18:00+17n118595 0.8 101119
21:00+13nne1197100 0.9 101021
20 april, tue
tue2000:00+12wsw1197100 0.0 100819
03:00+11se2495100 0.0 100474
06:00+12s2187100 0.0 100020
09:00+18sw1475100 0.0 1002330
12:00+19w81363100 0.0 1005920
15:00+12wsw91863100 0.6 10091195
18:00+11sw6156779 0.1 10111076
21:00+10sw615655 0.1 1014954
21 april, wed
wed2100:00+9ssw4136890 0.0 1015611
03:00+6wnw1390100 0.0 101784
06:00+6sse1294100 0.0 101964
09:00+12n016472 0.0 1019582
12:00+16nw234517 0.0 10191553
15:00+13nne2367100 0.1 1019296
18:00+12e2577100 0.2 1020349
21:00+8ese119175 0.2 102218